Regional Weather Roundup
Issued by NWS

Home | Current Version | Previous Version | Graphics & Text | Print | Product List | Glossary On
Versions: 1 2 3 4 5 6 7 8 9 10 11 12 13 14 15 16 17 18 19 20 21 22 23 24 25 26 27 28 29 30 31 32 33 34 35 36 37 38 39 40 41 42 43 44 45 46 47 48 49 50
000
ASUS43 KMPX 262101
RWRMN
WEATHER ROUNDUP FOR MINNESOTA
NATIONAL WEATHER SERVICE TWIN CITIES/CHANHASSEN MN
400 PM CDT WED JUL 26 2017


NOTE: "FAIR" INDICATES FEW OR NO CLOUDS BELOW 12,000 FEET WITH NO
SIGNIFICANT WEATHER AND/OR OBSTRUCTIONS TO VISIBILITY. N/A MEANS
CURRENT SKY AND/OR WEATHER CONDITIONS ARE NOT AVAILABLE.

MNZ060>063-068>070-262200-
   Twin Cities Metro

CITY           SKY/WX    TMP DP  RH WIND       PRES   REMARKS
TWIN CITIES    FAIR      84  61  45 NW8       29.99S
ST PAUL        FAIR      83  63  50 NW12      29.98F
CRYSTAL        FAIR      83  58  42 NW8       29.98S
BLAINE         MOSUNNY   84  61  45 NW12G26   29.99S
LAKEVILLE      FAIR      81  68  65 W7        29.99F
EDEN PRAIRIE   FAIR      83  64  52 NW7       29.99S
SOUTH ST PAUL  FAIR      82  62  50 NW5       29.98S
LAKE ELMO      FAIR      81  64  57 NW8       30.00S
$$
MNZ001>005-007-008-013>017-022>024-027-028-262200-
   Northwest Minnesota

CITY           SKY/WX    TMP DP  RH WIND       PRES   REMARKS
BEMIDJI        FAIR      76  58  53 N7        30.04S
HALLOCK        FAIR      81  61  50 NW10G17   30.05S
ROSEAU         FAIR      81  64  57 W7        30.03S
WARROAD        FAIR      79  63  57 N9        30.02F
CROOKSTON      FAIR      81  61  50 N13       30.05S
FOSSTON        FAIR      79  61  53 NW7       30.05S
DETROIT LAKES  FAIR      77  63  61 N8        30.07S
MOORHEAD       FAIR      81  61  50 NW12      30.05S
PARK RAPIDS    PTSUNNY   80  58  46 NW9       30.03S
MAHNOMEN       FAIR      79  60  52 NW9       30.05S
$$
MNZ006-009>011-018-025>026-262200-
   North Central Minnesota

CITY           SKY/WX    TMP DP  RH WIND       PRES   REMARKS
BAUDETTE       FAIR      80  58  46 NW9       30.01F
FLAG ISLAND    FAIR      79  57  47 N10       30.00S
INTL FALLS     PTSUNNY   81  57  43 N12       29.99S
WASKISH        CLOUDY    81  59  47 N9        30.02S
BIG FORK       FAIR      79  57  47 N6        30.01S
LONGVILLE      FAIR      79  59  50 NW7       30.03S
GRAND RAPIDS   FAIR      78  61  55 NW9       30.03S
CRANE LAKE     PTSUNNY   75  57  53 N10       29.99S
ORR            FAIR      79  55  44 NW7       29.97S
COOK             N/A     79  57  47 W9G17     29.99S
WALKER         MOCLDY    79  60  51 NW8       30.03S
$$
MNZ012-019>021-037-262200-
   Northeast Minnesota

CITY           SKY/WX    TMP DP  RH WIND       PRES   REMARKS
DULUTH         FAIR      77  59  53 N9        29.99S
ELY            PTSUNNY   79  55  44 W9G17     29.98S
HIBBING        PTSUNNY   76  59  55 W6        29.99F
EVELETH        FAIR      78  47  33 NW7       30.00F
DULUTH HARBOR  FAIR      82  64  54 W10       29.96S
TWO HARBORS    FAIR      82  63  51 N8        29.95S
SILVER BAY     FAIR      82  54  36 NW8       29.94S
GRAND MARAIS     N/A     68  60  75 W8        29.91S
G MARAIS ARPRT FAIR      75  52  43 NW5       29.98S
$$
MNZ029>031-032-039>041-046>048-054>057-064-262200-
   West Central Minnesota

CITY           SKY/WX    TMP DP  RH WIND       PRES   REMARKS
FERGUS FALLS   FAIR      79  63  57 N7        30.04S
WHEATON        FAIR      81  57  44 NW10      30.07S
MORRIS         FAIR      84  59  42 NW9       30.04S
ALEXANDRIA     FAIR      78  61  55 NW12      30.06S
ELBOW LAKE     FAIR      78  62  58 NW10G17   30.06S
WADENA         PTSUNNY   79  59  50 NW5       30.04S
GLENWOOD       FAIR      79  61  53 W8        30.06R
APPLETON       FAIR      82  57  42 NW9       30.04F
BENSON         FAIR      81  61  50 N10       30.06S
ORTONVILLE     FAIR      81  59  47 MISG      30.05F
MADISON        FAIR      84  63  48 N6        30.05F
WILLMAR        FAIR      81  63  54 NW10      30.05S
$$
MNZ033>034-036-042>043-049>051-058-059-262200-
   Central Minnesota

CITY           SKY/WX    TMP DP  RH WIND       PRES   REMARKS
ST CLOUD       FAIR      81  61  50 N8        30.01S
SAUK CENTRE    FAIR      81  61  50 W8        30.04S
PAYNESVILLE    FAIR      83  60  45 NW6       30.04S
AITKIN         FAIR      79  59  50 W6        30.00S
PINE RIVER     FAIR      81  61  50 N5        30.05S
BRAINERD       FAIR      79  58  48 NW6       30.02S
STAPLES        FAIR      82  57  42 N7        30.03S
LONG PRAIRIE   FAIR      79  61  53 W9        30.05R
LITTLE FALLS   PTSUNNY   81  55  41 NW7       30.02S
LITCHFIELD     FAIR      82  61  47 N8        30.02F
BUFFALO        FAIR      83  58  43 NW8       30.01S
MAPLE LAKE     FAIR      84  63  48 NW8       30.02S
HUTCHINSON     FAIR      81  61  50 N6        30.03S
$$
MNZ037-044-045-052-053-262200-
   East Central Minnesota

CITY           SKY/WX    TMP DP  RH WIND       PRES   REMARKS
PRINCETON      FAIR      84  63  48 NW8       30.01S
MORA           FAIR      79  55  44 N7        30.02S
CAMBRIDGE      FAIR      82  64  54 W7        29.98S
RUSH CITY      FAIR      81  60  49 NW8       30.00S
MOOSE LAKE     FAIR      77  61  57 NW3       29.98S
HINCKLEY       MOCLDY    81  63  54 W5        29.99F
CLOQUET        FAIR      81  57  44 NW7       29.99S
MCGREGOR       FAIR      79  59  50 NW7       30.01S
$$
MNZ071>073-080-081-089-090-097-098-262200-
   Southwest Minnesota

CITY           SKY/WX    TMP DP  RH WIND       PRES   REMARKS
MONTEVIDEO     FAIR      84  64  51 NE9       30.05S
GRANITE FALLS  FAIR      82  62  50 NW10      30.05S
CANBY          FAIR      84  57  39 N9        30.07S
MARSHALL       FAIR      79  60  52 N9        30.05S
REDWOOD FALLS  FAIR      82  59  45 NW10      30.02F
OLIVIA         FAIR      79  61  53 N9        30.03S
PIPESTONE      FAIR      81  59  47 NE10      30.07S
WINDOM         FAIR      81  64  57 N12       30.03S
WORTHINGTON    PTSUNNY   81  65  58 N12       30.04F
JACKSON        PTSUNNY   77  68  73 CALM      30.03S
TRACY          FAIR      80  65  59 N9        30.05S
SLAYTON        HVY RAIN  79  63  58 N13       30.06S
$$
MNZ065>067-074>077-082>085-091>093-262200-
   South Central Minnesota

CITY           SKY/WX    TMP DP  RH WIND       PRES   REMARKS
MANKATO        FAIR      80  70  71 NW5       30.01F
NEW ULM        FAIR      81  63  54 NW9       30.01S
ST JAMES       FAIR      81  70  69 NW5       30.02S
FAIRMONT       FAIR      81  71  71 VRB5      30.01S
GLENCOE        FAIR      81  65  57 N7        30.01S
FARIBAULT      FAIR      79  70  73 W3        30.00F
OWATONNA       FAIR      79  70  73 NW7       30.00F
WASECA         FAIR      77  70  78 NW7       30.02S
ALBERT LEA     FAIR      81  72  74 SW3       30.00S
$$
MNZ078>079-086>088-094>096-262200-
   Southeast Minnesota

CITY           SKY/WX    TMP DP  RH WIND       PRES   REMARKS
ROCHESTER      FAIR      79  72  79 N7        30.00F
RED WING       FAIR      81  70  69 NW5       29.97F
STANTON        PTSUNNY   80  70  72 NW8       29.98F
DODGE CENTER   FAIR      79  70  73 NW7       30.00F
WINONA         PTSUNNY   77  70  78 N3        29.99F
AUSTIN         FAIR      79  70  73 S6        30.00S
PRESTON        CLOUDY    78  68  72 S3        30.01F
$$
ABBREVIATIONS USED IN REMARKS
   TC - TEMPERATURES IN CELSIUS
  WCI - WIND CHILL INDEX
   HX - HEAT INDEX
  VSB - VISIBILITY
$$




USA.gov is the U.S. government's official web portal to all federal, state and local government web resources and services.